Location: Chilton Park
(37.7711°N, 100.0276°W)
Time: 13:22:51
(UTC+00:00)

Cosmos 1500 Rocket - Visible Passes

Search period start: 26 June 2022 00:00
Search period end: 06 July 2022 00:00
Orbit: 604 x 630 km, 82.5° (Epoch: 26 June)

Date Brightness Start Highest point End Pass type
(mag) Time Alt. Az. Time Alt. Az. Time Alt. Az.
27 Jun 6.1 09:29:22 10° SE 09:32:17 18° E 09:35:13 10° NE visible
28 Jun 5.2 09:44:47 10° SSE 09:48:41 32° E 09:52:38 10° NNE visible
29 Jun 4.0 10:00:51 10° S 10:05:11 63° E 10:09:35 10° NNE visible
30 Jun 3.6 10:17:27 10° SSW 10:21:46 67° W 10:26:12 10° N visible
01 Jul 6.0 08:58:05 10° SE 09:00:58 17° E 09:03:52 10° NE visible
01 Jul 4.4 10:34:24 10° SW 10:38:27 35° WNW 10:42:32 10° NNW visible
02 Jul 5.1 09:14:11 14° SSE 09:17:22 32° E 09:21:20 10° NNE visible
02 Jul 5.2 10:52:02 10° WSW 10:55:14 19° WNW 10:58:27 10° NNW visible
03 Jul 4.0 09:31:04 21° S 09:33:52 61° E 09:38:16 10° NNE visible
04 Jul 3.6 09:47:56 25° SSW 09:50:27 69° W 09:54:55 10° N visible
05 Jul 5.9 08:27:39 13° ESE 08:29:40 17° E 08:32:32 10° NE visible
05 Jul 4.3 10:04:46 21° SW 10:07:07 36° WNW 10:11:15 10° N visible
